Location: Gorze? G�rny
(49.8500°N, 19.5000°E)
Time: 05:18:01
(UTC+00:00)

Cosmos 2181 Rocket - Pass Details

Date: 13 May 2021
Orbit: 952 x 1014 km, 82.9° (Epoch: 20 June)

Event Time Altitude Azimuth Distance (km) Brightness Sun altitude
Exits shadow 20:54:23 29° 149° (SSE) 1,695 4.7 -17.8°
Maximum altitude 20:57:16 49° 91° (E) 1,214 4.3 -18.0°
Drops below altitude 10° 21:03:08 10° 18° (NNE) 2,692 7.0 -18.4°
Sets 21:05:42 0° 14° (NNE) 3,641 7.9 -18.5°
